,,PressureMeas_1m,,PRMeasQMR101_1,,RHStat155_1m_1,,SRMeasQMS101R_1m,,TAStat155_1m_1,,GenWind_1,,GenWind_1,
2018-06-10, 00:00:06,VALID,919.711,VALID,0.0,VALID,95.349,VALID,0.0,VALID,18.486,VALID,112.0,VALID,0.823,
2018-06-10, 00:01:06,VALID,919.703,VALID,0.0,VALID,95.668,VALID,0.011,VALID,18.478,VALID,107.0,VALID,0.7,
2018-06-10, 00:02:06,VALID,919.665,VALID,0.0,VALID,95.688,VALID,0.019,VALID,18.466,VALID,100.0,VALID,0.603,
2018-06-10, 00:03:06,VALID,919.653,VALID,0.0,VALID,95.55,VALID,0.013,VALID,18.45,VALID,95.0,VALID,0.561,
2018-06-10, 00:04:06,VALID,919.647,VALID,0.0,VALID,95.109,VALID,0.006,VALID,18.418,VALID,101.0,VALID,0.668,
2018-06-10, 00:05:06,VALID,919.629,VALID,0.0,VALID,95.108,VALID,-0.014,VALID,18.413,VALID,110.0,VALID,0.871,
2018-06-10, 00:06:06,VALID,919.619,VALID,0.0,VALID,95.135,VALID,-0.019,VALID,18.437,VALID,113.0,VALID,0.916,
2018-06-10, 00:07:06,VALID,919.635,VALID,0.0,VALID,94.585,VALID,-0.018,VALID,18.462,VALID,106.0,VALID,0.749,
2018-06-10, 00:08:06,VALID,919.621,VALID,0.0,VALID,93.995,VALID,0.006,VALID,18.471,VALID,106.0,VALID,0.88,
2018-06-10, 00:09:06,VALID,919.608,VALID,0.0,VALID,93.462,VALID,-0.006,VALID,18.441,VALID,110.0,VALID,0.946,
2018-06-10, 00:10:06,VALID,919.581,VALID,0.0,VALID,93.27,VALID,-0.003,VALID,18.389,VALID,109.0,VALID,1.006,
2018-06-10, 00:11:06,VALID,919.58,VALID,0.0,VALID,93.076,VALID,0.006,VALID,18.321,VALID,112.0,VALID,0.788,
2018-06-10, 00:12:06,VALID,919.559,VALID,0.0,VALID,92.982,VALID,-0.031,VALID,18.235,VALID,117.0,VALID,0.884,
2018-06-10, 00:13:06,VALID,919.54,VALID,0.0,VALID,93.344,VALID,-0.028,VALID,18.19,VALID,115.0,VALID,0.738,
2018-06-10, 00:14:06,VALID,919.513,VALID,0.0,VALID,92.894,VALID,-0.035,VALID,18.155,VALID,97.0,VALID,0.52,
2018-06-10, 00:15:06,VALID,919.494,VALID,0.0,VALID,92.885,VALID,-0.045,VALID,18.105,VALID,99.0,VALID,0.721,
2018-06-10, 00:16:06,VALID,919.465,VALID,0.0,VALID,93.142,VALID,-0.037,VALID,18.048,VALID,99.0,VALID,0.819,
2018-06-10, 00:17:06,VALID,919.425,VALID,0.0,VALID,93.26,VALID,-0.029,VALID,18.036,VALID,101.0,VALID,0.864,
2018-06-10, 00:18:06,VALID,919.408,VALID,0.0,VALID,93.394,VALID,-0.034,VALID,18.062,VALID,106.0,VALID,0.696,
2018-06-10, 00:19:06,VALID,919.394,VALID,0.0,VALID,93.37,VALID,0.004,VALID,18.076,VALID,109.0,VALID,0.727,
2018-06-10, 00:20:06,VALID,919.391,VALID,0.0,VALID,93.647,VALID,0.003,VALID,18.102,VALID,114.0,VALID,0.853,
2018-06-10, 00:21:06,VALID,919.38,VALID,0.0,VALID,93.659,VALID,0.007,VALID,18.128,VALID,125.0,VALID,0.863,
2018-06-10, 00:22:06,VALID,919.376,VALID,0.0,VALID,93.747,VALID,-0.006,VALID,18.165,VALID,117.0,VALID,0.914,
2018-06-10, 00:23:06,VALID,919.365,VALID,0.0,VALID,93.41,VALID,0.002,VALID,18.161,VALID,110.0,VALID,0.878,
2018-06-10, 00:24:06,VALID,919.349,VALID,0.0,VALID,93.487,VALID,0.021,VALID,18.163,VALID,102.0,VALID,0.776,
2018-06-10, 00:25:06,VALID,919.333,VALID,0.0,VALID,93.197,VALID,0.014,VALID,18.13,VALID,97.0,VALID,0.949,
2018-06-10, 00:26:06,VALID,919.323,VALID,0.0,VALID,93.289,VALID,-0.005,VALID,18.094,VALID,95.0,VALID,1.101,
2018-06-10, 00:27:06,VALID,919.322,VALID,0.0,VALID,93.847,VALID,0.008,VALID,18.099,VALID,98.0,VALID,1.286,
2018-06-10, 00:28:06,VALID,919.311,VALID,0.0,VALID,93.785,VALID,-0.009,VALID,18.126,VALID,100.0,VALID,1.208,
2018-06-10, 00:29:06,VALID,919.307,VALID,0.0,VALID,93.199,VALID,0.02,VALID,18.1,VALID,100.0,VALID,1.4,
2018-06-10, 00:30:06,VALID,919.315,VALID,0.0,VALID,93.124,VALID,0.009,VALID,18.056,VALID,101.0,VALID,1.367,
2018-06-10, 00:31:06,VALID,919.314,VALID,0.0,VALID,93.04,VALID,-0.008,VALID,18.025,VALID,97.0,VALID,1.514,
2018-06-10, 00:32:06,VALID,919.302,VALID,0.0,VALID,93.388,VALID,-0.02,VALID,18.03,VALID,97.0,VALID,1.556,
2018-06-10, 00:33:06,VALID,919.28,VALID,0.0,VALID,92.307,VALID,-0.005,VALID,18.021,VALID,96.0,VALID,1.648,
2018-06-10, 00:34:06,VALID,919.262,VALID,0.0,VALID,91.316,VALID,0.003,VALID,18.034,VALID,97.0,VALID,1.49,
2018-06-10, 00:35:06,VALID,919.236,VALID,0.0,VALID,90.977,VALID,0.009,VALID,18.01,VALID,100.0,VALID,1.441,
2018-06-10, 00:36:06,VALID,919.229,VALID,0.0,VALID,91.206,VALID,0.007,VALID,17.999,VALID,101.0,VALID,1.443,
2018-06-10, 00:37:06,VALID,919.212,VALID,0.0,VALID,91.525,VALID,0.002,VALID,18.02,VALID,97.0,VALID,1.472,
2018-06-10, 00:38:06,VALID,919.217,VALID,0.0,VALID,91.466,VALID,-0.009,VALID,18.064,VALID,98.0,VALID,1.384,
2018-06-10, 00:39:06,VALID,919.207,VALID,0.0,VALID,91.361,VALID,-0.006,VALID,18.045,VALID,104.0,VALID,1.317,
2018-06-10, 00:40:06,VALID,919.192,VALID,0.0,VALID,91.463,VALID,0.011,VALID,17.966,VALID,104.0,VALID,1.358,
2018-06-10, 00:41:06,VALID,919.183,VALID,0.0,VALID,92.226,VALID,0.004,VALID,17.944,VALID,101.0,VALID,1.433,
2018-06-10, 00:42:06,VALID,919.168,VALID,0.0,VALID,91.75,VALID,0.007,VALID,17.952,VALID,102.0,VALID,1.368,
2018-06-10, 00:43:06,VALID,919.164,VALID,0.0,VALID,91.207,VALID,-0.018,VALID,17.933,VALID,104.0,VALID,1.327,
2018-06-10, 00:44:06,VALID,919.156,VALID,0.0,VALID,90.612,VALID,0.001,VALID,17.932,VALID,104.0,VALID,1.256,
2018-06-10, 00:45:06,VALID,919.155,VALID,0.0,VALID,90.293,VALID,-0.007,VALID,17.94,VALID,106.0,VALID,1.243,
2018-06-10, 00:46:06,VALID,919.164,VALID,0.0,VALID,89.951,VALID,-0.004,VALID,17.961,VALID,106.0,VALID,1.265,
2018-06-10, 00:47:06,VALID,919.168,VALID,0.0,VALID,89.685,VALID,0.0,VALID,17.988,VALID,105.0,VALID,1.364,
2018-06-10, 00:48:06,VALID,919.154,VALID,0.0,VALID,89.487,VALID,-0.002,VALID,18.024,VALID,98.0,VALID,1.543,
2018-06-10, 00:49:06,VALID,919.15,VALID,0.0,VALID,89.203,VALID,-0.003,VALID,18.068,VALID,95.0,VALID,1.489,
2018-06-10, 00:50:06,VALID,919.157,VALID,0.0,VALID,89.249,VALID,0.004,VALID,18.044,VALID,99.0,VALID,1.376,
2018-06-10, 00:51:06,VALID,919.136,VALID,0.0,VALID,89.492,VALID,-0.01,VALID,18.001,VALID,101.0,VALID,1.275,
2018-06-10, 00:52:06,VALID,919.111,VALID,0.0,VALID,89.614,VALID,-0.0,VALID,17.961,VALID,98.0,VALID,1.333,
2018-06-10, 00:53:06,VALID,919.1,VALID,0.0,VALID,89.068,VALID,0.029,VALID,17.942,VALID,93.0,VALID,1.545,
2018-06-10, 00:54:06,VALID,919.065,VALID,0.0,VALID,88.564,VALID,0.016,VALID,17.927,VALID,94.0,VALID,1.573,
2018-06-10, 00:55:06,VALID,919.046,VALID,0.0,VALID,88.514,VALID,0.026,VALID,17.932,VALID,103.0,VALID,1.329,
2018-06-10, 00:56:06,VALID,919.017,VALID,0.0,VALID,88.381,VALID,0.014,VALID,17.951,VALID,104.0,VALID,1.207,
2018-06-10, 00:57:06,VALID,918.999,VALID,0.0,VALID,88.051,VALID,0.013,VALID,17.977,VALID,107.0,VALID,1.143,
2018-06-10, 00:58:06,VALID,918.979,VALID,0.0,VALID,87.813,VALID,0.018,VALID,17.989,VALID,102.0,VALID,1.284,
2018-06-10, 00:59:06,VALID,918.976,VALID,0.0,VALID,87.585,VALID,0.009,VALID,18.053,VALID,95.0,VALID,1.349,
2018-06-10, 01:00:06,VALID,918.981,VALID,0.0,VALID,86.837,VALID,0.006,VALID,18.167,VALID,99.0,VALID,1.261,
2018-06-10, 01:01:06,VALID,918.992,VALID,0.0,VALID,86.687,VALID,-0.005,VALID,18.21,VALID,103.0,VALID,1.297,
2018-06-10, 01:02:06,VALID,918.993,VALID,0.0,VALID,86.552,VALID,0.012,VALID,18.165,VALID,102.0,VALID,1.297,
2018-06-10, 01:03:06,VALID,918.989,VALID,0.0,VALID,85.834,VALID,0.033,VALID,18.214,VALID,101.0,VALID,1.445,
2018-06-10, 01:04:06,VALID,918.988,VALID,0.0,VALID,85.564,VALID,-0.009,VALID,18.303,VALID,99.0,VALID,1.428,
2018-06-10, 01:05:06,VALID,918.99,VALID,0.0,VALID,85.74,VALID,-0.009,VALID,18.322,VALID,96.0,VALID,1.498,
2018-06-10, 01:06:06,VALID,918.981,VALID,0.0,VALID,85.934,VALID,-0.011,VALID,18.356,VALID,97.0,VALID,1.407,
2018-06-10, 01:07:06,VALID,918.965,VALID,0.0,VALID,86.342,VALID,-0.029,VALID,18.314,VALID,98.0,VALID,1.428,
2018-06-10, 01:08:06,VALID,918.965,VALID,0.0,VALID,86.975,VALID,-0.018,VALID,18.261,VALID,95.0,VALID,1.539,
2018-06-10, 01:09:06,VALID,918.949,VALID,0.0,VALID,86.654,VALID,-0.005,VALID,18.271,VALID,98.0,VALID,1.457,
2018-06-10, 01:10:06,VALID,918.944,VALID,0.0,VALID,86.655,VALID,-0.01,VALID,18.261,VALID,96.0,VALID,1.395,
2018-06-10, 01:11:06,VALID,918.936,VALID,0.0,VALID,87.076,VALID,-0.021,VALID,18.167,VALID,92.0,VALID,1.31,
2018-06-10, 01:12:06,VALID,918.939,VALID,0.0,VALID,86.646,VALID,-0.012,VALID,18.178,VALID,96.0,VALID,1.266,
2018-06-10, 01:13:06,VALID,918.934,VALID,0.0,VALID,86.572,VALID,-0.02,VALID,18.185,VALID,104.0,VALID,1.007,
2018-06-10, 01:14:06,VALID,918.926,VALID,0.0,VALID,86.744,VALID,-0.011,VALID,18.126,VALID,111.0,VALID,1.059,
2018-06-10, 01:15:06,VALID,918.906,VALID,0.0,VALID,86.94,VALID,-0.038,VALID,18.127,VALID,112.0,VALID,1.03,
2018-06-10, 01:16:06,VALID,918.887,VALID,0.0,VALID,87.92,VALID,-0.042,VALID,18.207,VALID,120.0,VALID,1.135,
2018-06-10, 01:17:06,VALID,918.869,VALID,0.0,VALID,88.032,VALID,-0.022,VALID,18.332,VALID,121.0,VALID,1.032,
2018-06-10, 01:18:06,VALID,918.87,VALID,0.0,VALID,87.071,VALID,-0.025,VALID,18.482,VALID,114.0,VALID,0.793,
2018-06-10, 01:19:06,VALID,918.85,VALID,0.0,VALID,86.585,VALID,0.018,VALID,18.498,VALID,94.0,VALID,0.405,
2018-06-10, 01:20:06,VALID,918.844,VALID,0.0,VALID,86.031,VALID,0.024,VALID,18.369,VALID,100.0,VALID,0.471,
2018-06-10, 01:21:06,VALID,918.839,VALID,0.0,VALID,85.556,VALID,0.022,VALID,18.357,VALID,107.0,VALID,0.24,
2018-06-10, 01:22:06,VALID,918.841,VALID,0.0,VALID,87.227,VALID,-0.006,VALID,18.227,VALID,90.0,VALID,0.609,
2018-06-10, 01:23:06,VALID,918.834,VALID,0.0,VALID,87.516,VALID,0.01,VALID,18.082,VALID,88.0,VALID,0.542,
2018-06-10, 01:24:06,VALID,918.85,VALID,0.0,VALID,86.334,VALID,0.007,VALID,18.132,VALID,86.0,VALID,0.38,
2018-06-10, 01:25:06,VALID,918.833,VALID,0.0,VALID,86.044,VALID,0.018,VALID,18.189,VALID,86.0,VALID,0.03,
2018-06-10, 01:26:06,VALID,918.84,VALID,0.0,VALID,86.059,VALID,0.015,VALID,18.155,VALID,86.0,VALID,0.0,
2018-06-10, 01:27:06,VALID,918.823,VALID,0.0,VALID,85.034,VALID,0.016,VALID,18.176,VALID,89.0,VALID,0.0,
2018-06-10, 01:28:06,VALID,918.813,VALID,0.0,VALID,84.33,VALID,0.023,VALID,18.304,VALID,105.0,VALID,0.689,
2018-06-10, 01:29:06,VALID,918.801,VALID,0.0,VALID,85.22,VALID,0.019,VALID,18.325,VALID,105.0,VALID,0.727,
2018-06-10, 01:30:06,VALID,918.797,VALID,0.0,VALID,85.654,VALID,0.018,VALID,18.183,VALID,105.0,VALID,0.899,
2018-06-10, 01:31:06,VALID,918.787,VALID,0.0,VALID,84.839,VALID,0.002,VALID,18.205,VALID,100.0,VALID,0.786,
2018-06-10, 01:32:06,VALID,918.799,VALID,0.0,VALID,84.259,VALID,0.009,VALID,18.311,VALID,103.0,VALID,0.949,
2018-06-10, 01:33:06,VALID,918.799,VALID,0.0,VALID,83.766,VALID,0.01,VALID,18.374,VALID,106.0,VALID,1.102,
2018-06-10, 01:34:06,VALID,918.794,VALID,0.0,VALID,84.366,VALID,-0.001,VALID,18.233,VALID,110.0,VALID,1.01,
2018-06-10, 01:35:06,VALID,918.771,VALID,0.0,VALID,85.971,VALID,-0.021,VALID,17.893,VALID,105.0,VALID,1.163,
2018-06-10, 01:36:06,VALID,918.747,VALID,0.0,VALID,88.15,VALID,-0.034,VALID,17.703,VALID,99.0,VALID,1.268,
2018-06-10, 01:37:06,VALID,918.733,VALID,0.0,VALID,87.647,VALID,-0.003,VALID,17.818,VALID,100.0,VALID,1.304,
2018-06-10, 01:38:06,VALID,918.727,VALID,0.0,VALID,86.234,VALID,-0.029,VALID,17.955,VALID,105.0,VALID,1.163,
2018-06-10, 01:39:06,VALID,918.716,VALID,0.0,VALID,85.813,VALID,-0.02,VALID,18.07,VALID,113.0,VALID,1.29,
2018-06-10, 01:40:06,VALID,918.706,VALID,0.0,VALID,85.725,VALID,-0.021,VALID,18.115,VALID,127.0,VALID,0.973,
2018-06-10, 01:41:06,VALID,918.685,VALID,0.0,VALID,86.703,VALID,-0.019,VALID,18.009,VALID,131.0,VALID,0.666,
2018-06-10, 01:42:06,VALID,918.671,VALID,0.0,VALID,88.673,VALID,-0.032,VALID,18.029,VALID,128.0,VALID,0.87,
2018-06-10, 01:43:06,VALID,918.657,VALID,0.0,VALID,88.164,VALID,-0.008,VALID,18.027,VALID,132.0,VALID,0.803,
2018-06-10, 01:44:06,VALID,918.65,VALID,0.0,VALID,88.647,VALID,-0.016,VALID,17.94,VALID,134.0,VALID,0.764,
2018-06-10, 01:45:06,VALID,918.632,VALID,0.0,VALID,89.608,VALID,-0.005,VALID,17.985,VALID,121.0,VALID,1.055,
2018-06-10, 01:46:06,VALID,918.619,VALID,0.0,VALID,88.939,VALID,-0.011,VALID,18.106,VALID,100.0,VALID,1.13,
2018-06-10, 01:47:06,VALID,918.611,VALID,0.0,VALID,88.855,VALID,-0.022,VALID,18.116,VALID,86.0,VALID,1.14,
2018-06-10, 01:48:06,VALID,918.607,VALID,0.0,VALID,88.57,VALID,-0.006,VALID,18.066,VALID,84.0,VALID,0.802,
2018-06-10, 01:49:06,VALID,918.585,VALID,0.0,VALID,89.261,VALID,0.003,VALID,17.966,VALID,85.0,VALID,0.552,
2018-06-10, 01:50:06,VALID,918.578,VALID,0.0,VALID,89.704,VALID,-0.007,VALID,18.025,VALID,85.0,VALID,0.767,
2018-06-10, 01:51:06,VALID,918.559,VALID,0.0,VALID,88.383,VALID,-0.034,VALID,18.187,VALID,90.0,VALID,1.244,
2018-06-10, 01:52:06,VALID,918.548,VALID,0.0,VALID,86.881,VALID,-0.023,VALID,18.277,VALID,99.0,VALID,1.151,
2018-06-10, 01:53:06,VALID,918.539,VALID,0.0,VALID,86.73,VALID,-0.005,VALID,18.3,VALID,100.0,VALID,1.199,
2018-06-10, 01:54:06,VALID,918.507,VALID,0.0,VALID,86.307,VALID,-0.009,VALID,18.397,VALID,103.0,VALID,1.27,
2018-06-10, 01:55:06,VALID,918.48,VALID,0.0,VALID,86.551,VALID,-0.027,VALID,18.375,VALID,104.0,VALID,1.327,
2018-06-10, 01:56:06,VALID,918.454,VALID,0.0,VALID,85.785,VALID,-0.013,VALID,18.38,VALID,99.0,VALID,1.556,
2018-06-10, 01:57:06,VALID,918.433,VALID,0.0,VALID,84.255,VALID,-0.018,VALID,18.603,VALID,94.0,VALID,1.457,
2018-06-10, 01:58:06,VALID,918.428,VALID,0.0,VALID,84.058,VALID,0.002,VALID,18.663,VALID,90.0,VALID,1.119,
2018-06-10, 01:59:06,VALID,918.422,VALID,0.0,VALID,83.713,VALID,0.012,VALID,18.625,VALID,93.0,VALID,1.064,
2018-06-10, 02:00:06,VALID,918.41,VALID,0.0,VALID,83.383,VALID,-0.012,VALID,18.695,VALID,100.0,VALID,1.001,
2018-06-10, 02:01:06,VALID,918.394,VALID,0.0,VALID,84.777,VALID,-0.026,VALID,18.406,VALID,115.0,VALID,1.211,
2018-06-10, 02:02:06,VALID,918.371,VALID,0.0,VALID,86.01,VALID,-0.023,VALID,18.141,VALID,105.0,VALID,1.423,
2018-06-10, 02:03:06,VALID,918.369,VALID,0.0,VALID,85.883,VALID,-0.02,VALID,18.181,VALID,111.0,VALID,1.104,
2018-06-10, 02:04:06,VALID,918.374,VALID,0.0,VALID,85.32,VALID,-0.003,VALID,18.387,VALID,113.0,VALID,1.013,
2018-06-10, 02:05:06,VALID,918.379,VALID,0.0,VALID,84.777,VALID,-0.011,VALID,18.43,VALID,115.0,VALID,0.815,
2018-06-10, 02:06:06,VALID,918.377,VALID,0.0,VALID,85.079,VALID,-0.0,VALID,18.291,VALID,116.0,VALID,0.93,
2018-06-10, 02:07:06,VALID,918.375,VALID,0.0,VALID,86.558,VALID,0.027,VALID,18.104,VALID,99.0,VALID,1.123,
2018-06-10, 02:08:06,VALID,918.358,VALID,0.0,VALID,87.709,VALID,0.015,VALID,18.083,VALID,84.0,VALID,1.227,
2018-06-10, 02:09:06,VALID,918.342,VALID,0.0,VALID,87.509,VALID,0.011,VALID,17.962,VALID,76.0,VALID,0.952,
2018-06-10, 02:10:06,VALID,918.336,VALID,0.0,VALID,87.97,VALID,-0.013,VALID,17.837,VALID,76.0,VALID,0.54,
2018-06-10, 02:11:06,VALID,918.318,VALID,0.0,VALID,87.865,VALID,0.005,VALID,17.816,VALID,77.0,VALID,0.218,
2018-06-10, 02:12:06,VALID,918.303,VALID,0.0,VALID,87.714,VALID,-0.007,VALID,17.82,VALID,90.0,VALID,0.0,
2018-06-10, 02:13:06,VALID,918.295,VALID,0.0,VALID,88.237,VALID,0.0,VALID,17.824,VALID,97.0,VALID,0.0,
2018-06-10, 02:14:06,VALID,918.29,VALID,0.0,VALID,87.574,VALID,0.025,VALID,17.92,VALID,103.0,VALID,0.0,
2018-06-10, 02:15:06,VALID,918.297,VALID,0.0,VALID,86.698,VALID,0.005,VALID,18.059,VALID,103.0,VALID,0.0,
2018-06-10, 02:16:06,VALID,918.296,VALID,0.0,VALID,86.235,VALID,-0.012,VALID,18.135,VALID,103.0,VALID,0.0,
2018-06-10, 02:17:07,VALID,918.292,VALID,0.0,VALID,86.915,VALID,-0.004,VALID,18.054,VALID,104.0,VALID,0.0,
2018-06-10, 02:18:07,VALID,918.298,VALID,0.0,VALID,87.769,VALID,-0.001,VALID,17.873,VALID,111.0,VALID,0.0,
2018-06-10, 02:19:07,VALID,918.297,VALID,0.0,VALID,88.285,VALID,-0.0,VALID,17.822,VALID,109.0,VALID,0.0,
2018-06-10, 02:20:07,VALID,918.298,VALID,0.0,VALID,87.491,VALID,-0.027,VALID,17.851,VALID,97.0,VALID,0.0,
2018-06-10, 02:21:07,VALID,918.287,VALID,0.0,VALID,87.449,VALID,-0.016,VALID,17.801,VALID,109.0,VALID,0.0,
2018-06-10, 02:22:07,VALID,918.272,VALID,0.0,VALID,87.609,VALID,-0.036,VALID,17.783,VALID,113.0,VALID,0.0,
2018-06-10, 02:23:07,VALID,918.266,VALID,0.0,VALID,87.108,VALID,-0.021,VALID,17.869,VALID,114.0,VALID,0.0,
2018-06-10, 02:24:07,VALID,918.263,VALID,0.0,VALID,86.93,VALID,-0.03,VALID,17.965,VALID,105.0,VALID,0.0,
2018-06-10, 02:25:07,VALID,918.256,VALID,0.0,VALID,85.86,VALID,-0.029,VALID,18.094,VALID,96.0,VALID,0.0,
2018-06-10, 02:26:07,VALID,918.249,VALID,0.0,VALID,85.119,VALID,-0.036,VALID,18.362,VALID,95.0,VALID,0.0,
2018-06-10, 02:27:07,VALID,918.237,VALID,0.0,VALID,84.851,VALID,-0.034,VALID,18.477,VALID,97.0,VALID,0.0,
2018-06-10, 02:28:07,VALID,918.214,VALID,0.0,VALID,84.821,VALID,-0.04,VALID,18.343,VALID,102.0,VALID,0.0,
2018-06-10, 02:29:07,VALID,918.229,VALID,0.0,VALID,86.076,VALID,-0.026,VALID,18.114,VALID,111.0,VALID,0.0,
2018-06-10, 02:30:07,VALID,918.224,VALID,0.0,VALID,87.029,VALID,-0.029,VALID,17.959,VALID,109.0,VALID,0.0,
2018-06-10, 02:31:07,VALID,918.224,VALID,0.0,VALID,87.603,VALID,-0.02,VALID,17.889,VALID,116.0,VALID,0.243,
2018-06-10, 02:32:07,VALID,918.199,VALID,0.0,VALID,87.378,VALID,-0.023,VALID,17.872,VALID,102.0,VALID,1.313,
2018-06-10, 02:33:07,VALID,918.184,VALID,0.0,VALID,87.363,VALID,-0.02,VALID,17.816,VALID,97.0,VALID,1.521,
2018-06-10, 02:34:07,VALID,918.173,VALID,0.0,VALID,87.21,VALID,-0.004,VALID,17.72,VALID,92.0,VALID,1.302,
2018-06-10, 02:35:07,VALID,918.165,VALID,0.0,VALID,87.231,VALID,0.029,VALID,17.668,VALID,82.0,VALID,0.647,
2018-06-10, 02:36:07,VALID,918.166,VALID,0.0,VALID,87.39,VALID,0.002,VALID,17.659,VALID,78.0,VALID,0.004,
2018-06-10, 02:37:07,VALID,918.154,VALID,0.0,VALID,87.325,VALID,-0.001,VALID,17.696,VALID,90.0,VALID,0.257,
2018-06-10, 02:38:07,VALID,918.151,VALID,0.0,VALID,85.975,VALID,-0.006,VALID,17.9,VALID,110.0,VALID,1.052,
2018-06-10, 02:39:07,VALID,918.156,VALID,0.0,VALID,84.578,VALID,0.014,VALID,18.2,VALID,129.0,VALID,0.792,
2018-06-10, 02:40:07,VALID,918.139,VALID,0.0,VALID,83.705,VALID,0.003,VALID,18.401,VALID,126.0,VALID,0.238,
2018-06-10, 02:41:07,VALID,918.121,VALID,0.0,VALID,83.244,VALID,0.008,VALID,18.426,VALID,113.0,VALID,0.411,
2018-06-10, 02:42:07,VALID,918.108,VALID,0.0,VALID,83.385,VALID,-0.014,VALID,18.367,VALID,103.0,VALID,0.431,
2018-06-10, 02:43:07,VALID,918.09,VALID,0.0,VALID,83.667,VALID,0.008,VALID,18.295,VALID,97.0,VALID,0.582,
2018-06-10, 02:44:07,VALID,918.092,VALID,0.0,VALID,83.934,VALID,0.009,VALID,18.205,VALID,97.0,VALID,0.403,
2018-06-10, 02:45:07,VALID,918.098,VALID,0.0,VALID,84.223,VALID,-0.001,VALID,18.14,VALID,97.0,VALID,0.302,
2018-06-10, 02:46:07,VALID,918.091,VALID,0.0,VALID,84.241,VALID,0.001,VALID,18.168,VALID,97.0,VALID,0.405,
2018-06-10, 02:47:07,VALID,918.101,VALID,0.0,VALID,84.102,VALID,0.006,VALID,18.201,VALID,97.0,VALID,0.259,
2018-06-10, 02:48:07,VALID,918.099,VALID,0.0,VALID,83.803,VALID,-0.025,VALID,18.258,VALID,99.0,VALID,0.416,
2018-06-10, 02:49:07,VALID,918.107,VALID,0.0,VALID,83.36,VALID,0.01,VALID,18.357,VALID,103.0,VALID,0.256,
2018-06-10, 02:50:07,VALID,918.112,VALID,0.0,VALID,83.132,VALID,0.008,VALID,18.396,VALID,103.0,VALID,0.307,
2018-06-10, 02:51:07,VALID,918.111,VALID,0.0,VALID,82.981,VALID,0.002,VALID,18.39,VALID,103.0,VALID,0.307,
2018-06-10, 02:52:07,VALID,918.108,VALID,0.0,VALID,83.89,VALID,0.006,VALID,18.307,VALID,103.0,VALID,0.051,
2018-06-10, 02:53:07,VALID,918.108,VALID,0.0,VALID,84.494,VALID,0.009,VALID,18.164,VALID,103.0,VALID,0.0,
2018-06-10, 02:54:07,VALID,918.105,VALID,0.0,VALID,85.233,VALID,0.022,VALID,17.997,VALID,114.0,VALID,0.0,
2018-06-10, 02:55:07,VALID,918.098,VALID,0.0,VALID,86.394,VALID,0.012,VALID,17.728,VALID,122.0,VALID,0.0,
2018-06-10, 02:56:07,VALID,918.091,VALID,0.0,VALID,86.917,VALID,0.002,VALID,17.575,VALID,119.0,VALID,0.0,
2018-06-10, 02:57:07,VALID,918.078,VALID,0.0,VALID,87.168,VALID,0.003,VALID,17.527,VALID,120.0,VALID,0.0,
2018-06-10, 02:58:07,VALID,918.067,VALID,0.0,VALID,87.762,VALID,0.017,VALID,17.441,VALID,122.0,VALID,0.0,
2018-06-10, 02:59:07,VALID,918.052,VALID,0.0,VALID,87.948,VALID,-0.006,VALID,17.408,VALID,122.0,VALID,0.372,
2018-06-10, 03:00:07,VALID,918.063,VALID,0.0,VALID,88.486,VALID,-0.008,VALID,17.322,VALID,128.0,VALID,0.527,
2018-06-10, 03:01:07,VALID,918.071,VALID,0.0,VALID,89.003,VALID,0.016,VALID,17.256,VALID,137.0,VALID,0.292,
2018-06-10, 03:02:07,VALID,918.07,VALID,0.0,VALID,88.845,VALID,-0.01,VALID,17.275,VALID,118.0,VALID,0.526,
2018-06-10, 03:03:07,VALID,918.087,VALID,0.0,VALID,88.78,VALID,-0.002,VALID,17.305,VALID,106.0,VALID,0.618,
2018-06-10, 03:04:07,VALID,918.093,VALID,0.0,VALID,89.0,VALID,0.01,VALID,17.217,VALID,100.0,VALID,0.454,
2018-06-10, 03:05:07,VALID,918.085,VALID,0.0,VALID,89.691,VALID,0.019,VALID,17.135,VALID,100.0,VALID,0.228,
2018-06-10, 03:06:07,VALID,918.098,VALID,0.0,VALID,89.784,VALID,0.02,VALID,17.15,VALID,104.0,VALID,0.006,
2018-06-10, 03:07:07,VALID,918.091,VALID,0.0,VALID,89.768,VALID,0.033,VALID,17.191,VALID,108.0,VALID,0.0,
2018-06-10, 03:08:07,VALID,918.068,VALID,0.0,VALID,89.777,VALID,0.011,VALID,17.22,VALID,108.0,VALID,0.0,
2018-06-10, 03:09:07,VALID,918.053,VALID,0.0,VALID,89.56,VALID,0.014,VALID,17.23,VALID,128.0,VALID,0.0,
2018-06-10, 03:10:07,VALID,918.045,VALID,0.0,VALID,89.754,VALID,0.038,VALID,17.11,VALID,136.0,VALID,0.498,
2018-06-10, 03:11:07,VALID,918.046,VALID,0.0,VALID,89.803,VALID,0.021,VALID,17.103,VALID,129.0,VALID,0.82,
2018-06-10, 03:12:07,VALID,918.039,VALID,0.0,VALID,89.085,VALID,0.014,VALID,17.115,VALID,133.0,VALID,0.627,
2018-06-10, 03:13:07,VALID,918.044,VALID,0.0,VALID,89.261,VALID,0.021,VALID,17.024,VALID,136.0,VALID,0.5,
2018-06-10, 03:14:07,VALID,918.028,VALID,0.0,VALID,89.994,VALID,0.026,VALID,16.932,VALID,135.0,VALID,0.576,
2018-06-10, 03:15:07,VALID,918.025,VALID,0.0,VALID,90.36,VALID,0.012,VALID,16.968,VALID,120.0,VALID,0.539,
2018-06-10, 03:16:07,VALID,918.015,VALID,0.0,VALID,90.343,VALID,0.014,VALID,17.009,VALID,120.0,VALID,0.637,
2018-06-10, 03:17:07,VALID,918.001,VALID,0.0,VALID,90.146,VALID,0.005,VALID,17.111,VALID,128.0,VALID,0.636,
2018-06-10, 03:18:07,VALID,917.977,VALID,0.0,VALID,89.691,VALID,0.008,VALID,17.178,VALID,108.0,VALID,0.607,
2018-06-10, 03:19:07,VALID,917.983,VALID,0.0,VALID,89.776,VALID,-0.005,VALID,17.166,VALID,103.0,VALID,0.632,
2018-06-10, 03:20:07,VALID,917.996,VALID,0.0,VALID,89.589,VALID,0.0,VALID,17.193,VALID,103.0,VALID,0.634,
2018-06-10, 03:21:07,VALID,918.002,VALID,0.0,VALID,88.538,VALID,-0.01,VALID,17.35,VALID,100.0,VALID,0.711,
2018-06-10, 03:22:07,VALID,918.004,VALID,0.0,VALID,87.648,VALID,-0.008,VALID,17.486,VALID,102.0,VALID,0.623,
2018-06-10, 03:23:07,VALID,918.012,VALID,0.0,VALID,86.937,VALID,0.007,VALID,17.57,VALID,108.0,VALID,0.696,
2018-06-10, 03:24:07,VALID,918.02,VALID,0.0,VALID,85.947,VALID,-0.018,VALID,17.73,VALID,114.0,VALID,0.7,
2018-06-10, 03:25:07,VALID,918.03,VALID,0.0,VALID,85.725,VALID,-0.016,VALID,17.794,VALID,117.0,VALID,0.597,
2018-06-10, 03:26:07,VALID,918.05,VALID,0.0,VALID,85.961,VALID,-0.012,VALID,17.762,VALID,133.0,VALID,0.424,
2018-06-10, 03:27:07,VALID,918.046,VALID,0.0,VALID,86.371,VALID,0.001,VALID,17.649,VALID,133.0,VALID,0.439,
2018-06-10, 03:28:07,VALID,918.05,VALID,0.0,VALID,86.848,VALID,-0.018,VALID,17.527,VALID,116.0,VALID,0.369,
2018-06-10, 03:29:07,VALID,918.052,VALID,0.0,VALID,87.15,VALID,-0.01,VALID,17.461,VALID,110.0,VALID,0.276,
2018-06-10, 03:30:07,VALID,918.074,VALID,0.0,VALID,87.525,VALID,-0.001,VALID,17.417,VALID,107.0,VALID,0.036,
2018-06-10, 03:31:07,VALID,918.08,VALID,0.0,VALID,87.508,VALID,-0.02,VALID,17.401,VALID,106.0,VALID,0.144,
2018-06-10, 03:32:07,VALID,918.086,VALID,0.0,VALID,86.979,VALID,-0.004,VALID,17.478,VALID,106.0,VALID,0.013,
2018-06-10, 03:33:07,VALID,918.099,VALID,0.0,VALID,86.7,VALID,-0.004,VALID,17.509,VALID,106.0,VALID,0.0,
2018-06-10, 03:34:07,VALID,918.089,VALID,0.0,VALID,86.422,VALID,0.005,VALID,17.561,VALID,106.0,VALID,0.0,
2018-06-10, 03:35:07,VALID,918.085,VALID,0.0,VALID,85.788,VALID,-0.012,VALID,17.668,VALID,106.0,VALID,0.0,
2018-06-10, 03:36:07,VALID,918.074,VALID,0.0,VALID,85.055,VALID,-0.002,VALID,17.792,VALID,107.0,VALID,0.0,
2018-06-10, 03:37:07,VALID,918.061,VALID,0.0,VALID,85.262,VALID,0.001,VALID,17.811,VALID,118.0,VALID,0.0,
2018-06-10, 03:38:07,VALID,918.071,VALID,0.0,VALID,86.899,VALID,0.002,VALID,17.566,VALID,119.0,VALID,0.0,
2018-06-10, 03:39:07,VALID,918.082,VALID,0.0,VALID,87.961,VALID,0.013,VALID,17.301,VALID,141.0,VALID,0.0,